TimePST,TemperatureF,Dew PointF,Humidity,Sea Level PressureIn,VisibilityMPH,Wind Direction,Wind SpeedMPH,Gust SpeedMPH,PrecipitationIn,Events,Conditions,WindDirDegrees,DateUTC
12:53 AM,39.9,35.1,83,30.08,10.0,NNW,4.6,-,N/A,,Overcast,330,2013-02-21 08:53:00
1:53 AM,37.0,33.1,86,30.08,10.0,Calm,Calm,-,N/A,,Clear,0,2013-02-21 09:53:00
2:53 AM,35.1,32.0,89,30.09,10.0,Calm,Calm,-,N/A,,Mostly Cloudy,0,2013-02-21 10:53:00
3:53 AM,34.0,30.9,89,30.09,10.0,SE,4.6,-,N/A,,Scattered Clouds,130,2013-02-21 11:53:00
4:53 AM,33.1,30.0,89,30.09,10.0,SSE,4.6,-,N/A,,Mostly Cloudy,160,2013-02-21 12:53:00
5:53 AM,35.1,30.9,85,30.10,10.0,Calm,Calm,-,N/A,,Overcast,0,2013-02-21 13:53:00
6:53 AM,35.1,30.9,85,30.09,10.0,Calm,Calm,-,N/A,,Overcast,0,2013-02-21 14:53:00
7:53 AM,37.0,33.1,86,30.12,10.0,Calm,Calm,-,N/A,,Overcast,0,2013-02-21 15:53:00
8:53 AM,43.0,36.0,76,30.11,10.0,WNW,11.5,-,0.00,,Clear,300,2013-02-21 16:53:00
9:53 AM,43.0,34.0,71,30.12,10.0,NW,10.4,-,N/A,,Partly Cloudy,320,2013-02-21 17:53:00
10:53 AM,46.0,36.0,68,30.12,10.0,NW,18.4,-,N/A,,Mostly Cloudy,320,2013-02-21 18:53:00
11:53 AM,46.9,34.0,61,30.12,10.0,NNW,15.0,-,N/A,,Mostly Cloudy,330,2013-02-21 19:53:00
12:53 PM,46.9,34.0,61,30.09,10.0,NW,13.8,-,N/A,,Partly Cloudy,320,2013-02-21 20:53:00
1:53 PM,46.0,35.1,66,30.09,10.0,NNW,16.1,24.2,N/A,,Mostly Cloudy,340,2013-02-21 21:53:00
2:53 PM,45.0,35.1,68,30.10,10.0,NNW,15.0,-,N/A,,Overcast,340,2013-02-21 22:53:00
3:53 PM,46.0,33.1,61,30.09,10.0,NW,13.8,23.0,N/A,,Mostly Cloudy,320,2013-02-21 23:53:00
4:53 PM,45.0,32.0,60,30.09,10.0,NW,15.0,-,N/A,,Overcast,320,2013-02-22 00:53:00
5:53 PM,43.0,34.0,71,30.10,10.0,NNW,13.8,-,N/A,,Overcast,340,2013-02-22 01:53:00
6:53 PM,43.0,34.0,71,30.11,10.0,NNW,16.1,-,N/A,,Overcast,330,2013-02-22 02:53:00
7:53 PM,43.0,34.0,71,30.11,10.0,NW,12.7,-,N/A,,Overcast,320,2013-02-22 03:53:00
8:53 PM,42.1,35.1,76,30.12,10.0,WNW,9.2,-,N/A,,Mostly Cloudy,290,2013-02-22 04:53:00
9:53 PM,42.1,35.1,76,30.13,10.0,West,6.9,-,N/A,,Mostly Cloudy,270,2013-02-22 05:53:00
10:53 PM,42.1,36.0,79,30.13,10.0,NW,8.1,-,N/A,,Overcast,320,2013-02-22 06:53:00
11:53 PM,39.0,33.1,79,30.12,10.0,WNW,4.6,-,N/A,,Scattered Clouds,300,2013-02-22 07:53:00